Terug naar catalogus

FENGYUN 1C DEB

LostPO
NORAD 32336·DEBRIS·🇨🇳 China

Gelanceerd May 10, 1999 vanaf Taiyuan Satellite Launch Center

Loading…

Volgende Passages (komende 24 uur)

TLE

VerouderdSource: Space-Track

Epoch: Apr 26, 2011, 10:22 UTC

1 32336U 99025CYD 11116.43215084  .00002109  00000-0  67324-3 0  9996
2 32336  98.9945 205.8822 0139046  32.0357 328.7671 14.35469826202863

Volg FENGYUN 1C DEB in realtime met AllMySat

Download on the App Store